User: anonymous   Login
Location: Bergfeld
(52.0500°N, 11.7833°E)
Time: 17:54:09
(UTC+00:00)
Language:

Meteor 2-2 Rocket - Orbit

View from above orbital plane
View from above orbital plane
View from above satellite
View from above satellite

Ground track
Ground track

The orbit data is extracted from the following two-line orbital elements,

1  9662U 77002B   20151.34565132 -.00000025 +00000-0 -24429-4 0  9991
2  9662 081.2733 123.5609 0051270 304.7301 054.9041 14.00938773217328
Epoch (UTC): 30 May 2020 08:17:44
Eccentricity: 0.0051270
inclination: 81.2733°
perigee height: 853 km
apogee height: 928 km
right ascension of ascending node: 123.5609°
argument of perigee: 304.7301°
revolutions per day: 14.00938773
mean anomaly at epoch: 54.9041°
orbit number at epoch: 21732

The dashed part of the orbit path shows where the satellite is in the earth's shadow,  

DLR